Shenzhen Bao'an International Airport
ZGSZ : now visible

Airfield :











YOU CAN JOIN US ON...

 
LOGIN :

Register | Disclaimer

   EN    FR    IT 

 









Legend :    VFR   Marginal VFR   IFR   Intensive IFR   Very Intensive IFR
Visi :
Ceiling :
>= 8 km
>= 3000ft
5 to 8 km
1000 to 3000 ft
1500m to 5 km
500 to 1000 ft
800 to 1500m
200 to 500 ft
< 800m
< 200 ft
Symbols :   Thunderstorms  Fog  Heavy snow  Heavy precipitations  Wind > 20 kt






- Airport Elevation : 13 ft
- IATA code : SZX


ZGSZ - Shenzhen Bao'an International

CURRENT METAR :
  • 251100Z 14003MPS 090V190 9999 FEW043 29/24 Q1009 NOSIG

EXPIRED METARs :
  • 251000Z 04003MPS 9999 FEW026TCU BKN053 31/22 Q1008 NOSIG

TAF TAF ZGSZ
Valid from the 25 at 12:00 until the 26 at 12:00 UTC


250906Z 2512/2612 09004MPS 6000 SCT040 TX31/2606Z TN28/2522Z
TEMPO 2520/2524 SHRA SCT010 FEW020CB
ZGZU FIR / Asia



MET'MAP, your aeronautical weather chart ! - Copyright ORBIFLY December 2007 - Disclaimer

ORBIFLY MET'MAP TEAM :

Programming & Development : Alexandra Zaïnal
Concept & original design : Baudouin d'Aumeries
Assistance for programming : Marc-Olivier Méhu
Technical & hardware support : Manuel Goepfert

Contact : metmap@orbifly.com




SOURCES & CREDITS :

   NOAA       Earth
Advisory